This is the latest recevied weather packets stored in our database for station/object N8BAP. If no packets are shown the sender has not sent any weather packets the latest 10 day(s).
| Time | Temp. | Humidity | Pressure | Rain* | Wind** | Luminosity | Snow |
|---|---|---|---|---|---|---|---|
| 1778244034 | 10.56° C | 62% | 1019.9 hPa | 0 mm | - | 107 W/m² | - |
| 1778243732 | 10° C | 63% | 1020.1 hPa | 0 mm | - | 303 W/m² | - |
| 1778243428 | 10° C | 63% | 1019.9 hPa | 0 mm | - | 127 W/m² | - |
| 1778243125 | 9.44° C | 64% | 1020.1 hPa | 0 mm | - | 189 W/m² | - |
| 1778242822 | 10° C | 63% | 1020 hPa | 0 mm | - | 65 W/m² | - |
| 1778242520 | 9.44° C | 64% | 1019.9 hPa | 0 mm | - | 128 W/m² | - |
| 1778242218 | 9.44° C | 64% | 1019.7 hPa | 0 mm | - | 105 W/m² | - |
| 1778241915 | 10° C | 63% | 1019.8 hPa | 0 mm | - | 85 W/m² | - |
| 1778241614 | 9.44° C | 63% | 1019.7 hPa | 0 mm | - | 121 W/m² | - |
| 1778241311 | 9.44° C | 63% | 1019.6 hPa | 0 mm | - | 88 W/m² | - |
| 1778241007 | 8.89° C | 64% | 1019.8 hPa | 0 mm | - | 89 W/m² | - |
| 1778240704 | 8.89° C | 65% | 1019.9 hPa | 0 mm | - | 69 W/m² | - |
| 1778240401 | 8.89° C | 64% | 1019.6 hPa | 0 mm | - | 65 W/m² | - |
| 1778240098 | 8.89° C | 65% | 1019.8 hPa | 0 mm | - | 49 W/m² | - |
| 1778239795 | 8.89° C | 64% | 1019.5 hPa | 0 mm | - | 46 W/m² | - |
| 1778239491 | 8.89° C | 65% | 1019.5 hPa | 0 mm | - | 36 W/m² | - |
| 1778239188 | 8.89° C | 64% | 1019.4 hPa | 0 mm | - | 29 W/m² | - |
| 1778238885 | 8.89° C | 64% | 1019.3 hPa | 0 mm | - | 27 W/m² | - |
| 1778238582 | 8.89° C | 64% | 1019.2 hPa | 0 mm | - | 27 W/m² | - |
| 1778238280 | 8.89° C | 64% | 1019.4 hPa | 0 mm | - | 25 W/m² | - |
| 1778237980 | 8.33° C | 65% | 1019.4 hPa | 0 mm | - | 22 W/m² | - |
| 1778237676 | 8.33° C | 66% | 1019.3 hPa | 0 mm | - | 18 W/m² | - |
| 1778237374 | 7.78° C | 66% | 1019.5 hPa | 0 mm | - | 14 W/m² | - |
| 1778237071 | 7.78° C | 66% | 1019.3 hPa | 0 mm | - | 9 W/m² | - |
| 1778236767 | 7.78° C | 67% | 1019.3 hPa | 0 mm | - | 7 W/m² | - |
* Rain latest hour (hover to see other rain measurements)
** Current wind speed in m/s (hover to see current wind gust speed)